FENGYUN 1C DEB

Satellite information

Favourite Embed

Satellite Type and Status

DEBRISIN ORBIT

Key statistics

Satellite FENGYUN 1C DEB at a glance.

Uptime

9554

Days in orbit

Revolutions

≈ 14.5

Per day

Orbit

SSO

Sun Synchronous Orbit

Inclination

99.3

Latest

Satellite identification and parameters

Extended collection of information and parameters for FENGYUN 1C DEB.

Object identification

Identified? True

Debris? True

Object name: FENGYUN 1C DEB

International designator: 1999-025ZE

Object number (NORAD): 30293

Object ID (CCSDS): 30293

Country: PEOPLES REPUBLIC OF CHINA (PRC)

Current information (Y/N): Y

RCS size: SMALL

Orbital parameters

Period: 99.472 minutes

Inclination: 99.2571 deg

SMA: 7111.511 km

Apoapsis: 788.326 km

Periapsis: 678.426 km

RAAN: 1.029 deg

Eccentricy: 0.0077269

Argument of periapsis: 232.8557 deg

Mean anomaly: 147.5236 deg

Mean motion: 14.47637975 rev/day

Mean motion (dot): 0.00002166 rev/day2

B* drag term: 0.00058075 1/REarth

Two-line elements (TLE)

Creation date: July 4, 2025, 6:39 p.m.

Reference frame: TEME

Reference center: EARTH

Epoch: July 4, 2025, 10:19 a.m. UTC

TLE line 0: 0 FENGYUN 1C DEB

TLE line 1: 1 30293U 99025ZE 25185.42993979 .00002166 00000-0 58075-3 0 9998

TLE line 2: 2 30293 99.2571 1.0290 0077269 232.8557 147.5236 14.47637975966425

Live tracking on map

Real-time ground track for satellite FENGYUN 1C DEB.

In-orbit conjunctions

A list of the most updated potential collisions computed for object FENGYUN 1C DEB.

Target Orbit TCA Probability of collision Miss distance Type
IDEFIX/ARIANE 42P SSO 2025-02-21 11:27:45 0.000415469 121.0 (m) PAYLOAD
FENGYUN 1C DEB SSO 2024-11-10 08:30:52 0.000119934 640.0 (m) DEBRIS
ORBCOMM FM 26 LEO 2024-10-31 11:32:11 0.000144394 112.0 (m) PAYLOAD
FASAT B SSO 2024-09-25 18:07:45 0.0004729255 690.0 (m) PAYLOAD

Associated space launch

Chinese polar orbiting meteorological satellite

FENGYUN 1C DEB was lifted into orbit during the mission ‘Long March 4B | Feng Yun 1C’, on board a Long March 4B space rocket.

The launch took place on May 10, 1999, 1:33 a.m. from Launch Complex 7.

For more information about the launch, click the button.

Launch to space Long March 4B | Feng Yun 1C
Long March 4B | Feng Yun 1C

Agency: N/A

Status: Launch Successful

Launch date: May 10, 1999, 1:33 a.m. UTC

Rocket: Long March 4B

Launch pad: Launch Complex 7

Location: Taiyuan Satellite Launch Center, People's Republic of China

...

Latest news about this satellite

There are no fresh news available about this satellite. Check back as we update our databases every day.


Newsletter sign-up

Weekly statistics, charts and insights to help you stay on top of the space industry.